[[{"header":{"parameterUnit":"m.s-1","parameterCategory":1,"la1":30.2991,"la2":30.254,"lo1":-89.0895,"lo2":-89.0444,"dy":0.0017,"dx":0.0017,"nx":28,"ny":28,"refTime":"2025-01-28T03:00:00:Z","depth":0,"parameterNumber":2,"parameterNumberName":"U-component_of_WINDS"},"data":[0,0,0,0,0,0,0,0,0,0,0,0,0,0,0,0,0,0,0,0,0,0,0,0,0,0,0,0,0,0,0,0,0,0,0,0,0,0,0,0,0,0,0,0,0,0,0,0,0,0,0,0,0,0,0,0,0,0,-0.0141,-0.014,0,-0.0072,-0.0071,-0.007,-0.0032,-0.0032,-0.0032,-0.0032,0.0038,0.0039,0.0041,0,0,0,0,0,0,0,0,0,0,0,0,0,-0.0241,-0.0239,-0.0141,-0.014,-0.0139,-0.0072,-0.0071,-0.007,-0.0032,-0.0032,-0.0032,-0.0032,0.0037,0.0039,0.0041,0,0,0,0,0,0,0,0,0,0,0,0,0,-0.0187,-0.0239,-0.0141,-0.0113,-0.0109,-0.0072,-0.0071,-0.007,-0.0032,-0.0032,-0.0032,-0.0032,0.0036,0.0039,0.0042,0.0055,0,0,0.005,0.0051,0,0,0,0,0,0,0,0,-0.019,-0.0184,-0.0118,-0.0114,-0.0111,-0.006,-0.008,-0.0028,-0.0032,-0.0062,-0.0032,-0.0032,0.0005,0.001,0.0023,0.0058,0.0061,0.005,0.0052,0.0053,0.0053,0,0,0,0,0,0,0,-0.0194,-0.0186,-0.0114,-0.0117,-0.0113,-0.0103,-0.0095,-0.007,-0.003,-0.0059,-0.0056,-0.0048,0.0007,0.002,0.0025,0.0063,0.005,0.0052,0.0054,0.0055,0.0115,0.0115,0,0,0,0,0,0,-0.0202,-0.019,-0.0116,-0.0112,-0.0151,-0.0101,-0.0093,-0.0077,-0.003,-0.0023,-0.0049,-0.0047,0.0015,0.0021,0.0027,0.0048,0.0053,0.0055,0.0057,0.0115,0.0115,0.0115,0,0,0,0,0,0,-0.0205,-0.0196,-0.0119,-0.015,-0.0139,-0.01,-0.0082,-0.0076,-0.0062,-0.0022,-0.0015,-0.0042,0.0016,0.0023,0.0049,0.005,0.0056,0.0059,0.0115,0.0115,0.0115,0.0087,0,0,0,0,0,0,-0.0208,-0.0197,-0.0192,-0.015,-0.0138,-0.0099,-0.0082,-0.0074,-0.0057,-0.0055,-0.0014,-0.0008,0.0017,0.0044,0.0051,0.0054,0.0061,0.0115,0.0115,0.0115,0.0088,0.0086,0.0085,0,0,0,0,0,-0.0212,-0.0203,-0.0192,-0.0183,-0.013,-0.0099,-0.0092,-0.0064,-0.0058,-0.0052,-0.0026,-0.0009,0.0049,0.0047,0.0055,0.0058,0.0115,0.0115,0.0115,0.0089,0.0087,0.0085,0,0,0,0,0,0,-0.0247,-0.0198,-0.0184,-0.0162,-0.0135,-0.0093,-0.0084,-0.0067,-0.0042,-0.004,-0.0007,0.0002,0.0024,0.0044,0.004,0.0075,0.0084,0.0086,0.0061,0.006,0.0058,0.0052,0.0063,0,0,0,0,0,-0.0253,-0.0231,-0.0189,-0.0173,-0.016,-0.0125,-0.011,-0.009,-0.0061,-0.0049,-0.0022,0.0006,0.0031,0.0046,0.0071,0.0092,0.0101,0.0098,0.0097,0.0095,0.0096,0.011,0.0109,0.0115,0.0115,0.0115,0,0,-0.0264,-0.0233,-0.0222,-0.018,-0.0156,-0.0134,-0.0115,-0.0094,-0.0077,-0.0046,-0.002,0.0001,0.0034,0.0058,0.0069,0.0075,0.0097,0.0095,0.0093,0.0095,0.0109,0.0109,0.0108,0.0115,0.0115,0.0115,0,0,-0.0272,-0.0248,-0.0231,-0.0208,-0.0172,-0.0148,-0.0144,-0.0103,-0.0088,-0.0061,-0.0037,-0.0016,0.0025,0.0049,0.0066,0.0069,0.0085,0.0076,0.0067,0.008,0.0079,0.0079,0.0081,0.0081,0.0077,0.0077,0.0077,0,-0.0291,-0.0257,-0.0226,-0.0204,-0.0186,-0.0156,-0.0138,-0.0117,-0.0075,-0.0063,-0.0057,-0.0003,0.0022,0.0051,0.0052,0.0065,0.0071,0.0071,0.0077,0.0077,0.0077,0.0079,0.008,0.0075,0.0076,0.0076,0.0076,0,-0.028,-0.0257,-0.0248,-0.0207,-0.0188,-0.0169,-0.0134,-0.0118,-0.01,-0.0076,-0.0048,-0.0018,0.0015,0.0024,0.0041,0.0057,0.0059,0.007,0.008,0.0075,0.0077,0.0078,0.0073,0.0074,0.0074,0.0075,0,0,-0.0312,-0.0252,-0.0249,-0.0229,-0.0186,-0.0168,-0.0147,-0.0114,-0.01,-0.0072,-0.0053,-0.0017,-0.0006,0.0014,0.0035,0.0046,0.0048,0.0057,0.0058,0.0054,0.0068,0.0059,0.006,0.006,0.006,0.006,0.0066,0,-0.0314,-0.0275,-0.0245,-0.0217,-0.0194,-0.0164,-0.0146,-0.0117,-0.0094,-0.0071,-0.0045,-0.002,-0.0007,0.0005,0.0018,0.0045,0.0051,0.0045,0.0078,0.0079,0.0068,0.0061,0.0051,0.0054,0.0067,0.0067,0.0067,0,-0.0312,-0.0283,-0.0253,-0.021,-0.02,-0.0184,-0.015,-0.0129,-0.0095,-0.0079,-0.0056,-0.0033,-0.0009,-0.0001,0.0033,0.0029,0.0044,0.006,0.0061,0.0064,0.0072,0.0065,0.0056,0.0057,0.0069,0.0069,0.0069,0,-0.0337,-0.0291,-0.0266,-0.025,-0.02,-0.019,-0.0168,-0.0134,-0.0116,-0.0086,-0.0074,-0.0042,-0.0025,-0.0001,0.003,0.0033,0.0061,0.0072,0.0076,0.0075,0.008,0.0079,0.0074,0.009,0.009,0.009,0.009,0,-0.0343,-0.0326,-0.0277,-0.0262,-0.0241,-0.0206,-0.0186,-0.0162,-0.0131,-0.0111,-0.0082,-0.0063,-0.0024,-0.0,0.0024,0.005,0.0057,0.0071,0.0077,0.0068,0.0067,0.0079,0.0079,0.009,0.009,0.009,0.009,0,-0.0369,-0.0335,-0.0306,-0.026,-0.0248,-0.0234,-0.0195,-0.0179,-0.0153,-0.0127,-0.0119,-0.0079,-0.0049,-0.0015,0.0025,0.0042,0.0066,0.0075,0.0054,0.0058,0.0061,0.006,0.0062,0.0065,0.0079,0.0079,0.0079,0,-0.0375,-0.0361,-0.0312,-0.0296,-0.0275,-0.0249,-0.023,-0.0194,-0.0175,-0.0134,-0.0123,-0.009,-0.0063,-0.0016,0.0017,0.0049,0.0059,0.0057,0.0063,0.0055,0.0059,0.0058,0.006,0.0055,0.0055,0.0055,0.0054,0,-0.039,-0.0373,-0.0346,-0.0312,-0.0289,-0.0261,-0.0232,-0.022,-0.0179,-0.0158,-0.0127,-0.0105,-0.0062,-0.003,0.0006,0.0028,0.0049,0.0053,0.0055,0.0046,0.0034,0.0042,0.005,0.0052,0.0052,0.0052,0.0053,0.0053,-0.0405,-0.039,-0.0353,-0.0323,-0.0297,-0.027,-0.0252,-0.0223,-0.0196,-0.0158,-0.0138,-0.0107,-0.0071,-0.002,0.0002,0.0027,0.0034,0.0037,0.0038,0.0039,0.0037,0.0031,0.0034,0.0034,0.0034,0.0034,0.0034,0,-0.0418,-0.0392,-0.0365,-0.0324,-0.03,-0.0282,-0.0248,-0.0229,-0.0201,-0.017,-0.0142,-0.0105,-0.0073,-0.0037,-0.0002,0.0011,0.0021,0.0019,0.0018,0.0023,0.0029,0.0023,0.001,0.001,0.001,0.001,0.001,0.001,-0.0422,-0.0395,-0.0374,-0.0333,-0.0307,-0.0276,-0.0258,-0.0232,-0.0206,-0.0166,-0.0139,-0.0115,-0.008,-0.0043,-0.0012,-0.0002,0.0009,0.0004,0.0017,0.0021,0.0023,0.0025,0.002,0.0006,0.0006,0.0009,0.0009,0.0009]},{"header":{"parameterUnit":"m.s-1","parameterCategory":1,"la1":30.2991,"la2":30.254,"lo1":-89.0895,"lo2":-89.0444,"dy":0.0017,"dx":0.0017,"nx":28,"ny":28,"refTime":"2025-01-28T03:00:00:Z","depth":0,"parameterNumber":3,"parameterNumberName":"V-component_of_WINDS"},"data":[0,0,0,0,0,0,0,0,0,0,0,0,0,0,0,0,0,0,0,0,0,0,0,0,0,0,0,0,0,0,0,0,0,0,0,0,0,0,0,0,0,0,0,0,0,0,0,0,0,0,0,0,0,0,0,0,0,0,-3.5012,-3.5013,0,-3.5031,-3.5031,-3.5032,-3.4979,-3.4978,-3.4976,-3.4975,-3.499,-3.4992,-3.4994,0,0,0,0,0,0,0,0,0,0,0,0,0,-3.4928,-3.493,-3.5012,-3.5013,-3.5013,-3.5031,-3.5031,-3.5032,-3.498,-3.4978,-3.4976,-3.4974,-3.4989,-3.4992,-3.4994,0,0,0,0,0,0,0,0,0,0,0,0,0,-3.4957,-3.4931,-3.5012,-3.4989,-3.4987,-3.5031,-3.5031,-3.5032,-3.498,-3.4978,-3.4975,-3.4973,-3.4989,-3.4991,-3.4994,-3.506,0,0,-3.5003,-3.5004,0,0,0,0,0,0,0,0,-3.4956,-3.4961,-3.4992,-3.4991,-3.4989,-3.5,-3.5007,-3.5041,-3.4981,-3.4983,-3.4974,-3.4972,-3.4995,-3.4997,-3.5006,-3.5061,-3.5061,-3.5003,-3.5005,-3.5006,-3.5007,0,0,0,0,0,0,0,-3.4954,-3.4959,-3.502,-3.4993,-3.4991,-3.4977,-3.4978,-3.5013,-3.5002,-3.4982,-3.4979,-3.4982,-3.4994,-3.5003,-3.5006,-3.5062,-3.5003,-3.5006,-3.5007,-3.5009,-3.5172,-3.5174,0,0,0,0,0,0,-3.4955,-3.4958,-3.5019,-3.502,-3.4966,-3.498,-3.4982,-3.4999,-3.5002,-3.5,-3.4984,-3.4979,-3.5,-3.5003,-3.5006,-3.5084,-3.5006,-3.5009,-3.501,-3.5169,-3.5172,-3.5175,0,0,0,0,0,0,-3.4954,-3.4961,-3.5018,-3.4988,-3.4994,-3.4984,-3.5004,-3.5001,-3.501,-3.5003,-3.5,-3.4996,-3.4998,-3.5002,-3.5047,-3.5084,-3.501,-3.5013,-3.5166,-3.517,-3.5174,-3.524,0,0,0,0,0,0,-3.4952,-3.4961,-3.4987,-3.4989,-3.4996,-3.506,-3.5006,-3.5003,-3.5016,-3.501,-3.5013,-3.5012,-3.4996,-3.5044,-3.505,-3.5087,-3.5015,-3.5163,-3.5168,-3.5173,-3.5235,-3.5246,-3.5256,0,0,0,0,0,-3.4949,-3.5004,-3.4988,-3.4996,-3.5028,-3.5063,-3.5066,-3.5049,-3.5019,-3.5044,-3.5039,-3.5012,-3.5079,-3.5049,-3.5056,-3.5094,-3.516,-3.5167,-3.5172,-3.523,-3.5244,-3.5255,0,0,0,0,0,0,-3.5004,-3.5004,-3.4987,-3.5044,-3.5054,-3.5054,-3.5085,-3.5064,-3.5081,-3.5075,-3.5051,-3.5052,-3.5102,-3.5102,-3.5068,-3.5158,-3.5114,-3.5122,-3.5156,-3.5169,-3.5179,-3.5178,-3.5017,0,0,0,0,0,-3.5023,-3.5053,-3.505,-3.5101,-3.5107,-3.5095,-3.5109,-3.5095,-3.5104,-3.5107,-3.5106,-3.5114,-3.5137,-3.5153,-3.5174,-3.5234,-3.5234,-3.5264,-3.5274,-3.5283,-3.529,-3.5322,-3.5336,-3.5195,-3.5195,-3.5195,0,0,-3.5063,-3.5066,-3.5086,-3.5112,-3.5118,-3.5148,-3.5099,-3.5132,-3.5154,-3.5112,-3.5155,-3.5154,-3.5162,-3.5216,-3.5239,-3.5217,-3.5329,-3.529,-3.5297,-3.53,-3.533,-3.5343,-3.5355,-3.5199,-3.5198,-3.5197,0,0,-3.515,-3.5155,-3.5199,-3.5207,-3.5217,-3.5209,-3.522,-3.5223,-3.5221,-3.5264,-3.5234,-3.5258,-3.5298,-3.5306,-3.5314,-3.5406,-3.5381,-3.5413,-3.5467,-3.5499,-3.551,-3.552,-3.5553,-3.5565,-3.542,-3.542,-3.542,0,-3.5197,-3.5242,-3.5224,-3.526,-3.5272,-3.5237,-3.5281,-3.5288,-3.5304,-3.5313,-3.5289,-3.5339,-3.5342,-3.5397,-3.542,-3.5428,-3.5439,-3.5412,-3.5511,-3.552,-3.5529,-3.556,-3.5573,-3.5424,-3.5423,-3.5423,-3.5422,0,-3.53,-3.5332,-3.5366,-3.5384,-3.54,-3.544,-3.5426,-3.5445,-3.5429,-3.5424,-3.5468,-3.547,-3.5491,-3.5503,-3.5487,-3.5556,-3.5543,-3.5515,-3.5471,-3.5547,-3.5576,-3.5587,-3.5429,-3.5428,-3.5427,-3.5426,0,0,-3.5422,-3.5431,-3.5444,-3.5452,-3.5461,-3.5485,-3.5523,-3.5545,-3.5561,-3.5573,-3.5604,-3.5639,-3.5614,-3.5624,-3.5609,-3.5637,-3.571,-3.5606,-3.5606,-3.5626,-3.5787,-3.5808,-3.5822,-3.5693,-3.5696,-3.5697,-3.5786,0,-3.5509,-3.5576,-3.5561,-3.5626,-3.5655,-3.5623,-3.5655,-3.5664,-3.566,-3.5683,-3.5678,-3.5704,-3.5668,-3.5674,-3.57,-3.5696,-3.5742,-3.5689,-3.5722,-3.5723,-3.5722,-3.5837,-3.586,-3.5943,-3.5797,-3.5799,-3.58,0,-3.5619,-3.5638,-3.5707,-3.5712,-3.5724,-3.5754,-3.5773,-3.5796,-3.5805,-3.58,-3.5812,-3.5791,-3.5828,-3.5784,-3.5834,-3.5798,-3.581,-3.581,-3.5813,-3.5816,-3.5767,-3.5843,-3.5969,-3.5982,-3.5818,-3.5817,-3.5815,0,-3.5702,-3.5744,-3.5791,-3.5799,-3.5806,-3.5829,-3.5832,-3.5839,-3.5853,-3.587,-3.5879,-3.5899,-3.591,-3.5925,-3.591,-3.588,-3.5963,-3.5917,-3.5959,-3.596,-3.5979,-3.5978,-3.6109,-3.5986,-3.5986,-3.5985,-3.5985,0,-3.5801,-3.5845,-3.5829,-3.5858,-3.5906,-3.5887,-3.5935,-3.5934,-3.5941,-3.5968,-3.594,-3.5967,-3.5945,-3.5969,-3.5958,-3.6001,-3.6006,-3.6003,-3.5999,-3.6006,-3.6006,-3.6014,-3.6008,-3.5989,-3.5988,-3.5987,-3.5987,0,-3.5902,-3.5894,-3.5943,-3.5946,-3.5948,-3.5983,-3.5985,-3.6012,-3.6006,-3.6041,-3.6048,-3.6039,-3.6066,-3.6053,-3.608,-3.6073,-3.6129,-3.6117,-3.6127,-3.6124,-3.6167,-3.6164,-3.6308,-3.6326,-3.6191,-3.6192,-3.6193,0,-3.5966,-3.5999,-3.6007,-3.6024,-3.6031,-3.6059,-3.6074,-3.6057,-3.6073,-3.6087,-3.6112,-3.6137,-3.6156,-3.62,-3.6195,-3.6216,-3.6205,-3.6254,-3.6208,-3.6214,-3.6207,-3.6205,-3.6209,-3.6264,-3.6265,-3.6267,-3.6268,0,-3.608,-3.6075,-3.6099,-3.6122,-3.6141,-3.6158,-3.6172,-3.6187,-3.617,-3.619,-3.6219,-3.6234,-3.6263,-3.6288,-3.6307,-3.6309,-3.6286,-3.6282,-3.6293,-3.6301,-3.6305,-3.6304,-3.6153,-3.6279,-3.6278,-3.6277,-3.6277,-3.6276,-3.6165,-3.6193,-3.6204,-3.6231,-3.6241,-3.6255,-3.628,-3.6278,-3.6302,-3.6326,-3.6314,-3.6347,-3.6355,-3.6378,-3.6384,-3.6409,-3.6389,-3.6405,-3.6409,-3.6413,-3.6419,-3.6301,-3.6412,-3.6411,-3.6411,-3.6411,-3.641,0,-3.6278,-3.6284,-3.631,-3.6331,-3.6353,-3.6331,-3.6345,-3.6365,-3.6395,-3.6405,-3.6425,-3.6458,-3.6482,-3.648,-3.6502,-3.6522,-3.6512,-3.6529,-3.6527,-3.6528,-3.6435,-3.6424,-3.6537,-3.6537,-3.6537,-3.6537,-3.6537,-3.6537,-3.634,-3.6387,-3.6383,-3.6434,-3.6439,-3.6473,-3.6483,-3.6496,-3.6504,-3.6542,-3.6563,-3.6562,-3.6567,-3.659,-3.6611,-3.6609,-3.6619,-3.664,-3.6634,-3.6547,-3.6535,-3.6523,-3.6512,-3.6642,-3.6642,-3.6726,-3.6726,-3.6727]}]]